Time,TemperatureF,DewpointF,PressureIn,WindDirection,WindDirectionDegrees,WindSpeedMPH,WindSpeedGustMPH,Humidity,HourlyPrecipIn,Conditions,Clouds,dailyrainin,SoftwareType,DateUTC
2013-04-16 00:00:00,47.8,45.3,29.89,West,263,0.0,0.0,91,0.21,,RA,0.62,VWS V14.01,2013-04-16 04:00:00,
2013-04-16 00:01:00,47.8,45.3,29.88,West,263,0.0,0.0,91,0.14,,RA,0.00,VWS V14.01,2013-04-16 04:01:00,
2013-04-16 00:02:00,47.8,45.3,29.88,West,263,0.0,0.0,91,0.15,,RA,0.01,VWS V14.01,2013-04-16 04:02:00,
2013-04-16 00:08:00,47.7,45.2,29.89,West,263,0.0,2.0,91,0.17,,RA,0.03,VWS V14.01,2013-04-16 04:08:00,
2013-04-16 00:13:00,47.6,45.1,29.90,West,263,4.0,5.0,91,0.18,,RA,0.04,VWS V14.01,2013-04-16 04:13:00,
2013-04-16 00:18:00,47.5,45.0,29.88,West,263,0.0,0.0,91,0.17,,RA,0.06,VWS V14.01,2013-04-16 04:18:00,
2013-04-16 00:23:00,47.5,45.0,29.88,West,263,0.0,0.0,91,0.18,,RA,0.07,VWS V14.01,2013-04-16 04:23:00,
2013-04-16 00:28:00,47.4,45.2,29.89,West,263,0.0,0.0,92,0.18,,RA,0.07,VWS V14.01,2013-04-16 04:28:00,
2013-04-16 00:33:00,47.4,45.2,29.89,West,263,0.0,0.0,92,0.20,,RA,0.10,VWS V14.01,2013-04-16 04:33:00,
2013-04-16 00:38:00,47.3,44.8,29.88,West,263,0.0,0.0,91,0.22,,RA,0.12,VWS V14.01,2013-04-16 04:38:00,
2013-04-16 00:43:00,47.3,45.1,29.90,West,263,4.0,4.0,92,0.23,,RA,0.13,VWS V14.01,2013-04-16 04:43:00,
2013-04-16 00:49:00,47.2,45.0,29.88,West,263,0.0,0.0,92,0.20,,RA,0.14,VWS V14.01,2013-04-16 04:49:00,
2013-04-16 00:54:00,47.1,44.9,29.89,West,263,0.0,0.0,92,0.20,,RA,0.14,VWS V14.01,2013-04-16 04:54:00,
2013-04-16 00:59:00,47.0,44.8,29.89,West,259,0.0,0.0,92,0.21,,RA,0.15,VWS V14.01,2013-04-16 04:59:00,
2013-04-16 01:04:00,47.1,44.9,29.89,West,259,0.0,0.0,92,0.17,,RA,0.17,VWS V14.01,2013-04-16 05:04:00,
2013-04-16 01:09:00,47.0,44.8,29.90,West,259,3.0,4.0,92,0.18,,RA,0.18,VWS V14.01,2013-04-16 05:09:00,
2013-04-16 01:14:00,47.0,44.8,29.90,West,259,2.0,6.0,92,0.19,,-RA,0.19,VWS V14.01,2013-04-16 05:14:00,
2013-04-16 01:19:00,47.0,44.8,29.89,West,259,0.0,0.0,92,0.14,,-RA,0.19,VWS V14.01,2013-04-16 05:19:00,
2013-04-16 01:24:00,47.0,44.8,29.90,WSW,250,6.0,8.0,92,0.14,,-RA,0.19,VWS V14.01,2013-04-16 05:24:00,
2013-04-16 01:29:00,47.0,44.8,29.90,WSW,257,9.0,9.0,92,0.15,,-RA,0.20,VWS V14.01,2013-04-16 05:29:00,
2013-04-16 01:34:00,47.0,44.8,29.90,West,267,7.0,9.0,92,0.12,,-RA,0.20,VWS V14.01,2013-04-16 05:34:00,
2013-04-16 01:39:00,47.0,44.8,29.89,WSW,258,5.0,9.0,92,0.13,,-RA,0.21,VWS V14.01,2013-04-16 05:39:00,
2013-04-16 01:45:00,46.9,44.7,29.91,West,263,9.0,9.0,92,0.13,,-RA,0.21,VWS V14.01,2013-04-16 05:45:00,
2013-04-16 01:50:00,46.9,44.7,29.89,West,276,4.0,6.0,92,0.09,,-RA,0.22,VWS V14.01,2013-04-16 05:50:00,
2013-04-16 01:55:00,46.8,44.6,29.91,WSW,245,3.0,8.0,92,0.10,,-RA,0.23,VWS V14.01,2013-04-16 05:55:00,
2013-04-16 02:00:00,46.8,44.6,29.90,West,267,6.0,10.0,92,0.07,,-RA,0.23,VWS V14.01,2013-04-16 06:00:00,
2013-04-16 02:05:00,46.6,44.4,29.88,West,265,0.0,10.0,92,0.07,,-RA,0.23,VWS V14.01,2013-04-16 06:05:00,
2013-04-16 02:10:00,46.5,44.3,29.90,West,272,11.0,12.0,92,0.07,,-RA,0.23,VWS V14.01,2013-04-16 06:10:00,
2013-04-16 02:15:00,46.4,44.2,29.90,WNW,283,3.0,8.0,92,0.04,,-RA,0.23,VWS V14.01,2013-04-16 06:15:00,
2013-04-16 02:21:00,46.2,44.0,29.90,WSW,257,5.0,8.0,92,0.04,,-RA,0.23,VWS V14.01,2013-04-16 06:21:00,
2013-04-16 02:26:00,46.0,43.8,29.89,West,276,8.0,13.0,92,0.04,,-RA,0.23,VWS V14.01,2013-04-16 06:26:00,
2013-04-16 02:31:00,45.7,43.5,29.91,West,278,5.0,9.0,92,0.04,,-RA,0.24,VWS V14.01,2013-04-16 06:31:00,
2013-04-16 02:36:00,45.6,43.4,29.90,West,271,5.0,10.0,92,0.04,,-RA,0.24,VWS V14.01,2013-04-16 06:36:00,
2013-04-16 02:41:00,45.5,43.3,29.90,WNW,286,5.0,11.0,92,0.05,,-RA,0.25,VWS V14.01,2013-04-16 06:41:00,
2013-04-16 02:46:00,45.4,43.2,29.90,West,263,0.0,0.0,92,0.04,,-RA,0.25,VWS V14.01,2013-04-16 06:46:00,
2013-04-16 02:51:00,45.2,43.0,29.90,SW,236,6.0,8.0,92,0.04,,-RA,0.25,VWS V14.01,2013-04-16 06:51:00,
2013-04-16 02:56:00,45.0,42.8,29.91,West,267,4.0,8.0,92,0.04,,-RA,0.25,VWS V14.01,2013-04-16 06:56:00,
2013-04-16 03:01:00,44.9,42.7,29.90,West,263,0.0,0.0,92,0.03,,-RA,0.26,VWS V14.01,2013-04-16 07:01:00,
2013-04-16 03:07:00,44.7,42.5,29.90,WSW,249,3.0,4.0,92,0.03,,-RA,0.26,VWS V14.01,2013-04-16 07:07:00,
2013-04-16 03:12:00,44.5,42.3,29.90,West,271,0.0,0.0,92,0.03,,-RA,0.26,VWS V14.01,2013-04-16 07:12:00,
2013-04-16 03:17:00,44.5,42.3,29.91,West,268,0.0,0.0,92,0.03,,-RA,0.26,VWS V14.01,2013-04-16 07:17:00,
2013-04-16 03:22:00,44.4,42.2,29.90,West,268,0.0,0.0,92,0.03,,-RA,0.26,VWS V14.01,2013-04-16 07:22:00,
2013-04-16 03:27:00,44.4,42.2,29.89,West,268,0.0,0.0,92,0.03,,-RA,0.26,VWS V14.01,2013-04-16 07:27:00,
2013-04-16 03:32:00,44.3,42.1,29.90,West,261,0.0,0.0,92,0.03,,-RA,0.26,VWS V14.01,2013-04-16 07:32:00,
2013-04-16 03:37:00,44.1,41.9,29.90,WSW,250,0.0,0.0,92,0.03,,-RA,0.26,VWS V14.01,2013-04-16 07:37:00,
2013-04-16 03:42:00,43.9,41.7,29.89,WSW,250,0.0,0.0,92,0.03,,-RA,0.26,VWS V14.01,2013-04-16 07:42:00,
2013-04-16 03:47:00,43.8,41.6,29.90,West,271,0.0,0.0,92,0.01,,-RA,0.26,VWS V14.01,2013-04-16 07:47:00,
2013-04-16 03:52:00,43.7,41.5,29.91,West,263,7.0,7.0,92,0.01,,-RA,0.26,VWS V14.01,2013-04-16 07:52:00,
2013-04-16 03:58:00,43.5,41.3,29.91,West,276,4.0,10.0,92,0.01,,-RA,0.26,VWS V14.01,2013-04-16 07:58:00,
2013-04-16 04:03:00,43.1,40.9,29.91,West,274,4.0,8.0,92,0.00,,-RA,0.26,VWS V14.01,2013-04-16 08:03:00,
2013-04-16 04:08:00,42.9,40.7,29.91,West,279,3.0,11.0,92,0.00,,-RA,0.26,VWS V14.01,2013-04-16 08:08:00,
2013-04-16 04:13:00,42.9,40.7,29.92,WSW,244,3.0,7.0,92,0.00,,-RA,0.26,VWS V14.01,2013-04-16 08:13:00,
2013-04-16 04:18:00,42.8,40.6,29.91,West,269,0.0,0.0,92,0.00,,-RA,0.26,VWS V14.01,2013-04-16 08:18:00,
2013-04-16 04:23:00,42.7,40.5,29.90,WSW,257,0.0,0.0,92,0.00,,OVC005,0.26,VWS V14.01,2013-04-16 08:23:00,
2013-04-16 04:28:00,42.7,40.5,29.91,West,272,0.0,0.0,92,0.00,,OVC005,0.26,VWS V14.01,2013-04-16 08:28:00,
2013-04-16 04:34:00,42.7,40.5,29.92,West,264,0.0,0.0,92,0.00,,OVC005,0.26,VWS V14.01,2013-04-16 08:34:00,
2013-04-16 04:39:00,42.7,40.5,29.92,WSW,247,0.0,0.0,92,0.00,,OVC005,0.26,VWS V14.01,2013-04-16 08:39:00,
2013-04-16 04:44:00,42.6,40.4,29.92,WNW,292,0.0,0.0,92,0.00,,OVC005,0.26,VWS V14.01,2013-04-16 08:44:00,
2013-04-16 04:49:00,42.6,40.4,29.91,West,264,3.0,7.0,92,0.00,,OVC005,0.26,VWS V14.01,2013-04-16 08:49:00,
2013-04-16 04:54:00,42.5,40.3,29.91,West,265,0.0,0.0,92,0.00,,OVC005,0.26,VWS V14.01,2013-04-16 08:54:00,
2013-04-16 04:59:00,42.5,40.3,29.92,West,261,0.0,3.0,92,0.00,,OVC023,0.26,VWS V14.01,2013-04-16 08:59:00,
2013-04-16 05:04:00,42.5,40.3,29.93,WSW,255,0.0,3.0,92,0.00,,OVC023,0.26,VWS V14.01,2013-04-16 09:04:00,
2013-04-16 05:09:00,42.5,40.3,29.93,WSW,255,0.0,0.0,92,0.00,,OVC023,0.26,VWS V14.01,2013-04-16 09:09:00,
2013-04-16 05:14:00,42.5,40.3,29.93,West,259,4.0,8.0,92,0.00,,OVC023,0.26,VWS V14.01,2013-04-16 09:14:00,
2013-04-16 05:19:00,42.5,40.3,29.93,WSW,256,0.0,6.0,92,0.00,,OVC023,0.26,VWS V14.01,2013-04-16 09:19:00,
2013-04-16 05:24:00,42.5,40.3,29.93,WSW,257,0.0,3.0,92,0.00,,OVC023,0.26,VWS V14.01,2013-04-16 09:24:00,
2013-04-16 05:29:00,42.5,40.3,29.94,WSW,257,5.0,5.0,92,0.00,,OVC023,0.26,VWS V14.01,2013-04-16 09:29:00,
2013-04-16 05:34:00,42.4,40.2,29.94,WSW,257,0.0,3.0,92,0.00,,OVC023,0.26,VWS V14.01,2013-04-16 09:34:00,
2013-04-16 05:39:00,42.4,40.2,29.94,West,270,0.0,0.0,92,0.00,,OVC023,0.26,VWS V14.01,2013-04-16 09:39:00,
2013-04-16 05:44:00,42.4,40.2,29.95,West,264,4.0,6.0,92,0.00,,OVC023,0.26,VWS V14.01,2013-04-16 09:44:00,
2013-04-16 05:50:00,42.4,40.2,29.95,West,261,0.0,0.0,92,0.00,,OVC023,0.26,VWS V14.01,2013-04-16 09:50:00,
2013-04-16 05:55:00,42.4,40.2,29.95,West,273,3.0,5.0,92,0.00,,OVC050,0.26,VWS V14.01,2013-04-16 09:55:00,
2013-04-16 06:00:00,42.4,40.2,29.96,West,272,0.0,0.0,92,0.00,,OVC050,0.26,VWS V14.01,2013-04-16 10:00:00,
2013-04-16 06:05:00,42.4,40.2,29.95,West,276,7.0,7.0,92,0.00,,OVC011,0.26,VWS V14.01,2013-04-16 10:05:00,
2013-04-16 06:10:00,42.4,40.2,29.95,West,278,0.0,0.0,92,0.00,,OVC011,0.26,VWS V14.01,2013-04-16 10:10:00,
2013-04-16 06:15:00,42.3,40.2,29.95,West,278,0.0,0.0,92,0.00,,OVC011,0.26,VWS V14.01,2013-04-16 10:15:00,
2013-04-16 06:20:00,42.3,40.2,29.95,West,278,0.0,0.0,92,0.00,,OVC011,0.26,VWS V14.01,2013-04-16 10:20:00,
2013-04-16 06:25:00,42.3,40.2,29.95,WNW,286,6.0,6.0,92,0.00,,OVC011,0.26,VWS V14.01,2013-04-16 10:25:00,
2013-04-16 06:30:00,42.3,40.2,29.95,WNW,292,0.0,0.0,92,0.00,,OVC011,0.26,VWS V14.01,2013-04-16 10:30:00,
2013-04-16 06:35:00,42.2,40.0,29.95,WNW,291,5.0,6.0,92,0.00,,OVC011,0.26,VWS V14.01,2013-04-16 10:35:00,
2013-04-16 06:41:00,42.2,40.0,29.95,WNW,291,0.0,0.0,92,0.00,,OVC011,0.26,VWS V14.01,2013-04-16 10:41:00,
2013-04-16 06:46:00,42.1,40.0,29.96,WNW,295,0.0,0.0,92,0.00,,OVC011,0.26,VWS V14.01,2013-04-16 10:46:00,
2013-04-16 06:51:00,42.1,40.0,29.96,WNW,295,0.0,0.0,92,0.00,,OVC011,0.26,VWS V14.01,2013-04-16 10:51:00,
2013-04-16 06:56:00,42.1,40.0,29.96,WNW,295,0.0,0.0,92,0.00,,OVC011,0.26,VWS V14.01,2013-04-16 10:56:00,
2013-04-16 07:02:00,42.1,40.0,29.96,WNW,291,0.0,0.0,92,0.00,,BKN070,0.26,VWS V14.01,2013-04-16 11:02:00,
2013-04-16 07:07:00,42.0,39.8,29.96,WNW,291,0.0,0.0,92,0.00,,BKN070,0.26,VWS V14.01,2013-04-16 11:07:00,
2013-04-16 07:12:00,41.9,39.8,29.96,WNW,291,0.0,0.0,92,0.00,,BKN070,0.26,VWS V14.01,2013-04-16 11:12:00,
2013-04-16 07:17:00,41.7,39.5,29.97,WNW,291,5.0,5.0,92,0.00,,BKN070,0.26,VWS V14.01,2013-04-16 11:17:00,
2013-04-16 07:22:00,41.6,39.5,29.97,WNW,291,0.0,0.0,92,0.00,,BKN070,0.26,VWS V14.01,2013-04-16 11:22:00,
2013-04-16 07:27:00,41.5,39.3,29.98,WNW,291,0.0,0.0,92,0.00,,BKN070,0.26,VWS V14.01,2013-04-16 11:27:00,
2013-04-16 07:32:00,41.4,39.2,29.98,WNW,291,0.0,0.0,92,0.00,,BKN070,0.26,VWS V14.01,2013-04-16 11:32:00,
2013-04-16 07:37:00,41.3,39.2,29.98,WNW,291,0.0,0.0,92,0.00,,BKN070,0.26,VWS V14.01,2013-04-16 11:37:00,
2013-04-16 07:42:00,41.2,39.1,29.99,WNW,291,0.0,0.0,92,0.00,,BKN070,0.26,VWS V14.01,2013-04-16 11:42:00,
2013-04-16 07:47:00,41.2,39.1,29.99,WNW,291,0.0,0.0,92,0.00,,BKN070,0.26,VWS V14.01,2013-04-16 11:47:00,
2013-04-16 07:52:00,41.2,39.1,29.99,WNW,291,0.0,0.0,92,0.00,,BKN070,0.26,VWS V14.01,2013-04-16 11:52:00,
2013-04-16 07:57:00,41.3,39.2,29.99,WNW,291,0.0,0.0,92,0.00,,BKN070,0.26,VWS V14.01,2013-04-16 11:57:00,
2013-04-16 08:02:00,41.3,39.2,29.99,WNW,291,0.0,0.0,92,0.00,,BKN070,0.26,VWS V14.01,2013-04-16 12:02:00,
2013-04-16 08:07:00,41.4,39.2,30.00,WNW,291,0.0,4.0,92,0.00,,BKN070,0.26,VWS V14.01,2013-04-16 12:07:00,
2013-04-16 08:12:00,41.4,39.2,30.00,WNW,291,0.0,0.0,92,0.00,,BKN070,0.26,VWS V14.01,2013-04-16 12:12:00,
2013-04-16 08:17:00,41.5,39.3,30.00,WNW,291,0.0,0.0,92,0.00,,BKN070,0.26,VWS V14.01,2013-04-16 12:17:00,
2013-04-16 08:22:00,41.6,39.5,30.00,WNW,291,0.0,0.0,92,0.00,,SCT230,0.26,VWS V14.01,2013-04-16 12:22:00,
2013-04-16 08:27:00,41.8,39.7,30.00,WNW,291,2.0,4.0,92,0.00,,SCT230,0.26,VWS V14.01,2013-04-16 12:27:00,
2013-04-16 08:32:00,41.9,39.8,30.01,WNW,287,4.0,6.0,92,0.00,,SCT230,0.26,VWS V14.01,2013-04-16 12:32:00,
2013-04-16 08:38:00,41.8,39.4,30.01,West,270,5.0,9.0,91,0.00,,SCT230,0.26,VWS V14.01,2013-04-16 12:38:00,
2013-04-16 08:43:00,41.9,39.5,30.01,West,270,3.0,5.0,91,0.00,,SCT230,0.26,VWS V14.01,2013-04-16 12:43:00,
2013-04-16 08:48:00,42.1,39.7,30.01,West,270,5.0,7.0,91,0.00,,SCT230,0.26,VWS V14.01,2013-04-16 12:48:00,
2013-04-16 08:53:00,42.2,39.5,30.02,West,270,3.0,5.0,90,0.00,,SCT230,0.26,VWS V14.01,2013-04-16 12:53:00,
2013-04-16 08:58:00,42.5,39.8,30.02,West,281,8.0,10.0,90,0.00,,SCT230,0.26,VWS V14.01,2013-04-16 12:58:00,
2013-04-16 09:03:00,42.6,39.3,30.02,West,272,4.0,5.0,88,0.00,,SCT230,0.26,VWS V14.01,2013-04-16 13:03:00,
2013-04-16 09:09:00,42.8,39.2,30.02,NW,304,8.0,8.0,87,0.00,,SCT230,0.26,VWS V14.01,2013-04-16 13:09:00,
2013-04-16 09:14:00,43.0,39.1,30.03,WNW,296,0.0,5.0,86,0.00,,SCT230,0.26,VWS V14.01,2013-04-16 13:14:00,
2013-04-16 09:19:00,43.3,38.8,30.03,WNW,283,8.0,10.0,84,0.00,,SCT230,0.26,VWS V14.01,2013-04-16 13:19:00,
2013-04-16 09:24:00,43.4,38.3,30.03,NW,309,7.0,13.0,82,0.00,,SCT230,0.26,VWS V14.01,2013-04-16 13:24:00,
2013-04-16 09:29:00,43.5,37.8,30.04,NW,325,6.0,8.0,80,0.00,,SCT230,0.26,VWS V14.01,2013-04-16 13:29:00,
2013-04-16 09:34:00,43.7,37.6,30.03,West,260,8.0,10.0,79,0.00,,SCT230,0.26,VWS V14.01,2013-04-16 13:34:00,
2013-04-16 09:39:00,43.9,37.2,30.03,West,270,8.0,10.0,77,0.00,,SCT230,0.26,VWS V14.01,2013-04-16 13:39:00,
2013-04-16 09:45:00,44.2,37.1,30.04,West,261,3.0,7.0,76,0.00,,SCT230,0.26,VWS V14.01,2013-04-16 13:45:00,
2013-04-16 09:50:00,44.2,36.5,30.04,West,278,11.0,13.0,74,0.00,,SCT230,0.26,VWS V14.01,2013-04-16 13:50:00,
2013-04-16 09:55:00,44.3,35.9,30.04,WNW,284,6.0,10.0,72,0.00,,SCT230,0.26,VWS V14.01,2013-04-16 13:55:00,
2013-04-16 10:00:00,44.6,36.2,30.04,NNW,327,0.0,10.0,72,0.00,,SCT230,0.26,VWS V14.01,2013-04-16 14:00:00,
2013-04-16 10:05:00,45.1,36.6,30.04,NW,314,5.0,6.0,72,0.00,,CLR,0.26,VWS V14.01,2013-04-16 14:05:00,
2013-04-16 10:10:00,45.3,36.1,30.04,WSW,247,6.0,9.0,70,0.00,,CLR,0.26,VWS V14.01,2013-04-16 14:10:00,
2013-04-16 10:15:00,45.6,36.4,30.05,West,276,0.0,4.0,70,0.00,,CLR,0.26,VWS V14.01,2013-04-16 14:15:00,
2013-04-16 10:20:00,45.9,36.3,30.05,WNW,301,4.0,7.0,69,0.00,,CLR,0.26,VWS V14.01,2013-04-16 14:20:00,
2013-04-16 10:25:00,46.0,36.4,30.05,West,279,8.0,12.0,69,0.00,,CLR,0.26,VWS V14.01,2013-04-16 14:25:00,
2013-04-16 10:30:00,46.0,36.0,30.06,NW,306,13.0,13.0,68,0.00,,CLR,0.26,VWS V14.01,2013-04-16 14:30:00,
2013-04-16 10:36:00,46.2,36.6,30.06,WSW,242,11.0,16.0,69,0.00,,CLR,0.26,VWS V14.01,2013-04-16 14:36:00,
2013-04-16 10:41:00,46.0,35.3,30.06,SW,217,7.0,7.0,66,0.00,,CLR,0.26,VWS V14.01,2013-04-16 14:41:00,
2013-04-16 10:46:00,45.9,34.8,30.06,WSW,257,8.0,13.0,65,0.00,,CLR,0.26,VWS V14.01,2013-04-16 14:46:00,
2013-04-16 10:51:00,46.0,35.3,30.07,West,264,3.0,11.0,66,0.00,,CLR,0.26,VWS V14.01,2013-04-16 14:51:00,
2013-04-16 10:56:00,46.2,35.1,30.07,NW,322,8.0,13.0,65,0.00,,CLR,0.26,VWS V14.01,2013-04-16 14:56:00,
2013-04-16 11:01:00,46.4,35.7,30.07,West,261,8.0,11.0,66,0.00,,SCT090,0.26,VWS V14.01,2013-04-16 15:01:00,
2013-04-16 11:06:00,46.5,35.4,30.07,WNW,292,4.0,11.0,65,0.00,,SCT090,0.26,VWS V14.01,2013-04-16 15:06:00,
2013-04-16 11:11:00,46.5,35.4,30.06,WSW,238,7.0,11.0,65,0.00,,SCT090,0.26,VWS V14.01,2013-04-16 15:11:00,
2013-04-16 11:17:00,46.6,35.9,30.06,NW,320,9.0,11.0,66,0.00,,SCT090,0.26,VWS V14.01,2013-04-16 15:17:00,
2013-04-16 11:22:00,46.9,35.8,30.06,NW,313,8.0,12.0,65,0.00,,SCT090,0.26,VWS V14.01,2013-04-16 15:22:00,
2013-04-16 11:27:00,47.2,36.0,30.06,West,270,7.0,8.0,65,0.00,,SCT090,0.26,VWS V14.01,2013-04-16 15:27:00,
2013-04-16 11:32:00,47.4,35.8,30.06,WSW,242,12.0,13.0,64,0.00,,SCT090,0.26,VWS V14.01,2013-04-16 15:32:00,
2013-04-16 11:37:00,47.5,35.1,30.07,SW,222,9.0,12.0,62,0.00,,SCT090,0.26,VWS V14.01,2013-04-16 15:37:00,
2013-04-16 11:42:00,47.5,34.7,30.07,WSW,247,15.0,15.0,61,0.00,,SCT090,0.26,VWS V14.01,2013-04-16 15:42:00,
2013-04-16 11:47:00,47.8,35.4,30.07,WSW,258,5.0,11.0,62,0.00,,SCT090,0.26,VWS V14.01,2013-04-16 15:47:00,
2013-04-16 11:52:00,48.0,35.2,30.08,West,263,4.0,12.0,61,0.00,,SCT090,0.26,VWS V14.01,2013-04-16 15:52:00,
2013-04-16 11:57:00,47.8,34.6,30.08,West,262,11.0,12.0,60,0.00,,SCT090,0.26,VWS V14.01,2013-04-16 15:57:00,
2013-04-16 12:03:00,47.9,35.1,30.08,WNW,291,14.0,14.0,61,0.00,,FEW090,0.26,VWS V14.01,2013-04-16 16:03:00,
2013-04-16 12:08:00,48.0,35.2,30.08,NW,319,7.0,15.0,61,0.00,,FEW090,0.26,VWS V14.01,2013-04-16 16:08:00,
2013-04-16 12:13:00,48.1,35.3,30.08,WNW,299,5.0,13.0,61,0.00,,FEW090,0.26,VWS V14.01,2013-04-16 16:13:00,
2013-04-16 12:18:00,48.6,35.8,30.08,WNW,299,4.0,11.0,61,0.00,,FEW090,0.26,VWS V14.01,2013-04-16 16:18:00,
2013-04-16 12:23:00,48.9,35.2,30.08,WNW,301,6.0,13.0,59,0.00,,FEW090,0.26,VWS V14.01,2013-04-16 16:23:00,
2013-04-16 12:29:00,48.9,35.6,30.07,NW,319,4.0,6.0,60,0.00,,FEW090,0.26,VWS V14.01,2013-04-16 16:29:00,
2013-04-16 12:34:00,49.5,37.0,30.07,SSW,206,0.0,7.0,62,0.00,,FEW090,0.26,VWS V14.01,2013-04-16 16:34:00,
2013-04-16 12:39:00,49.5,35.8,30.07,West,263,5.0,11.0,59,0.00,,FEW090,0.26,VWS V14.01,2013-04-16 16:39:00,
2013-04-16 12:44:00,49.5,35.8,30.07,NNW,330,0.0,4.0,59,0.00,,FEW090,0.26,VWS V14.01,2013-04-16 16:44:00,
2013-04-16 12:49:00,49.6,35.5,30.07,WNW,286,16.0,16.0,58,0.00,,FEW090,0.26,VWS V14.01,2013-04-16 16:49:00,
2013-04-16 12:54:00,49.5,35.8,30.08,West,259,7.0,9.0,59,0.00,,FEW090,0.26,VWS V14.01,2013-04-16 16:54:00,
2013-04-16 12:59:00,49.5,35.8,30.08,WNW,282,0.0,8.0,59,0.00,,FEW090,0.26,VWS V14.01,2013-04-16 16:59:00,
2013-04-16 13:04:00,49.5,35.3,30.09,West,274,16.0,16.0,58,0.00,,FEW090,0.26,VWS V14.01,2013-04-16 17:04:00,
2013-04-16 13:09:00,49.5,35.3,30.09,West,266,6.0,6.0,58,0.00,,FEW090,0.26,VWS V14.01,2013-04-16 17:09:00,
2013-04-16 13:14:00,49.7,36.8,30.09,WSW,251,4.0,6.0,61,0.00,,FEW090,0.26,VWS V14.01,2013-04-16 17:14:00,
2013-04-16 13:19:00,50.1,36.3,30.10,WNW,288,8.0,10.0,59,0.00,,FEW090,0.26,VWS V14.01,2013-04-16 17:19:00,
2013-04-16 13:24:00,50.2,36.0,30.10,West,263,11.0,12.0,58,0.00,,FEW090,0.26,VWS V14.01,2013-04-16 17:24:00,
2013-04-16 13:29:00,50.1,35.0,30.09,West,271,7.0,14.0,56,0.00,,FEW090,0.26,VWS V14.01,2013-04-16 17:29:00,
2013-04-16 13:34:00,50.0,34.5,30.10,WSW,254,18.0,18.0,55,0.00,,FEW090,0.26,VWS V14.01,2013-04-16 17:34:00,
2013-04-16 13:39:00,49.7,33.8,30.10,WNW,282,6.0,15.0,54,0.00,,FEW090,0.26,VWS V14.01,2013-04-16 17:39:00,
2013-04-16 13:45:00,49.6,33.7,30.10,WSW,253,12.0,17.0,54,0.00,,FEW090,0.26,VWS V14.01,2013-04-16 17:45:00,
2013-04-16 13:50:00,49.5,33.6,30.10,West,259,9.0,17.0,54,0.00,,FEW090,0.26,VWS V14.01,2013-04-16 17:50:00,
2013-04-16 13:55:00,49.6,33.7,30.11,West,279,9.0,12.0,54,0.00,,FEW090,0.26,VWS V14.01,2013-04-16 17:55:00,
2013-04-16 14:00:00,50.0,35.4,30.11,WNW,289,0.0,12.0,57,0.00,,FEW090,0.26,VWS V14.01,2013-04-16 18:00:00,
2013-04-16 14:05:00,50.4,34.9,30.11,WNW,303,14.0,14.0,55,0.00,,FEW090,0.26,VWS V14.01,2013-04-16 18:05:00,
2013-04-16 14:10:00,50.6,34.1,30.11,WNW,282,3.0,12.0,53,0.00,,FEW090,0.26,VWS V14.01,2013-04-16 18:10:00,
2013-04-16 14:15:00,50.5,34.5,30.11,WSW,249,2.0,12.0,54,0.00,,FEW200,0.26,VWS V14.01,2013-04-16 18:15:00,
2013-04-16 14:20:00,50.5,35.4,30.10,West,263,0.0,9.0,56,0.00,,FEW200,0.26,VWS V14.01,2013-04-16 18:20:00,
2013-04-16 14:25:00,50.6,35.5,30.10,WSW,250,1.0,9.0,56,0.00,,FEW200,0.26,VWS V14.01,2013-04-16 18:25:00,
2013-04-16 14:30:00,50.9,35.3,30.10,West,272,4.0,6.0,55,0.00,,FEW200,0.26,VWS V14.01,2013-04-16 18:30:00,
2013-04-16 14:35:00,51.2,36.1,30.11,West,271,0.0,5.0,56,0.00,,FEW200,0.26,VWS V14.01,2013-04-16 18:35:00,
2013-04-16 14:40:00,51.5,36.3,30.10,West,259,3.0,8.0,56,0.00,,FEW200,0.26,VWS V14.01,2013-04-16 18:40:00,
2013-04-16 14:45:00,51.6,35.0,30.10,WSW,242,2.0,4.0,53,0.00,,FEW200,0.26,VWS V14.01,2013-04-16 18:45:00,
2013-04-16 14:51:00,51.5,34.5,30.11,SW,232,3.0,9.0,52,0.00,,FEW200,0.26,VWS V14.01,2013-04-16 18:51:00,
2013-04-16 14:57:00,51.1,33.6,30.12,WSW,251,13.0,18.0,51,0.00,,FEW200,0.26,VWS V14.01,2013-04-16 18:57:00,
2013-04-16 15:02:00,50.9,32.9,30.12,NNW,328,0.0,9.0,50,0.00,,FEW200,0.26,VWS V14.01,2013-04-16 19:02:00,
2013-04-16 15:07:00,51.2,35.1,30.12,SW,236,6.0,10.0,54,0.00,,FEW200,0.26,VWS V14.01,2013-04-16 19:07:00,
2013-04-16 15:12:00,51.5,35.4,30.12,WNW,299,9.0,12.0,54,0.00,,FEW200,0.26,VWS V14.01,2013-04-16 19:12:00,
2013-04-16 15:17:00,51.6,34.6,30.12,WSW,257,3.0,9.0,52,0.00,,FEW200,0.26,VWS V14.01,2013-04-16 19:17:00,
2013-04-16 15:22:00,51.6,35.5,30.13,West,262,4.0,9.0,54,0.00,,FEW200,0.26,VWS V14.01,2013-04-16 19:22:00,
2013-04-16 15:27:00,51.6,35.5,30.14,WSW,257,5.0,8.0,54,0.00,,FEW200,0.26,VWS V14.01,2013-04-16 19:27:00,
2013-04-16 15:32:00,51.8,35.7,30.13,WSW,245,1.0,6.0,54,0.00,,FEW200,0.26,VWS V14.01,2013-04-16 19:32:00,
2013-04-16 15:38:00,51.8,35.2,30.13,WSW,252,9.0,9.0,53,0.00,,FEW200,0.26,VWS V14.01,2013-04-16 19:38:00,
2013-04-16 15:43:00,51.6,34.6,30.13,WNW,301,6.0,11.0,52,0.00,,FEW200,0.26,VWS V14.01,2013-04-16 19:43:00,
2013-04-16 15:48:00,51.5,34.5,30.12,West,267,8.0,11.0,52,0.00,,FEW200,0.26,VWS V14.01,2013-04-16 19:48:00,
2013-04-16 15:53:00,51.4,34.9,30.13,WNW,302,4.0,7.0,53,0.00,,FEW200,0.26,VWS V14.01,2013-04-16 19:53:00,
2013-04-16 15:58:00,51.6,35.5,30.13,WSW,243,5.0,12.0,54,0.00,,FEW200,0.26,VWS V14.01,2013-04-16 19:58:00,
2013-04-16 16:03:00,51.1,35.5,30.13,WNW,286,8.0,8.0,55,0.00,,SCT220,0.26,VWS V14.01,2013-04-16 20:03:00,
2013-04-16 16:08:00,51.1,35.0,30.14,West,260,8.0,10.0,54,0.00,,SCT220,0.26,VWS V14.01,2013-04-16 20:08:00,
2013-04-16 16:13:00,50.8,34.8,30.14,West,263,3.0,8.0,54,0.00,,SCT220,0.26,VWS V14.01,2013-04-16 20:13:00,
2013-04-16 16:18:00,50.9,35.8,30.14,WSW,239,8.0,8.0,56,0.00,,SCT220,0.26,VWS V14.01,2013-04-16 20:18:00,
2013-04-16 16:24:00,51.2,36.5,30.14,WNW,287,0.0,2.0,57,0.00,,SCT220,0.26,VWS V14.01,2013-04-16 20:24:00,
2013-04-16 16:29:00,51.5,36.3,30.13,NW,317,0.0,6.0,56,0.00,,SCT220,0.26,VWS V14.01,2013-04-16 20:29:00,
2013-04-16 16:34:00,51.5,35.9,30.14,West,262,3.0,11.0,55,0.00,,SCT220,0.26,VWS V14.01,2013-04-16 20:34:00,
2013-04-16 16:39:00,51.2,36.5,30.13,West,260,5.0,7.0,57,0.00,,SCT220,0.26,VWS V14.01,2013-04-16 20:39:00,
2013-04-16 16:44:00,51.2,36.5,30.13,West,261,0.0,0.0,57,0.00,,SCT220,0.26,VWS V14.01,2013-04-16 20:44:00,
2013-04-16 16:49:00,51.2,35.6,30.13,NNW,336,0.0,5.0,55,0.00,,SCT220,0.26,VWS V14.01,2013-04-16 20:49:00,
2013-04-16 16:54:00,51.3,36.2,30.13,SW,233,3.0,7.0,56,0.00,,SCT220,0.26,VWS V14.01,2013-04-16 20:54:00,
2013-04-16 16:59:00,51.0,35.9,30.13,West,270,0.0,2.0,56,0.00,,SCT220,0.26,VWS V14.01,2013-04-16 20:59:00,
2013-04-16 17:04:00,50.8,35.7,30.14,WNW,300,5.0,6.0,56,0.00,,SCT220,0.26,VWS V14.01,2013-04-16 21:04:00,
2013-04-16 17:09:00,50.9,36.7,30.14,West,267,4.0,13.0,58,0.00,,SCT220,0.26,VWS V14.01,2013-04-16 21:09:00,
2013-04-16 17:14:00,50.8,35.7,30.14,WNW,299,7.0,10.0,56,0.00,,SCT220,0.26,VWS V14.01,2013-04-16 21:14:00,
2013-04-16 17:19:00,50.6,35.5,30.13,WSW,254,4.0,6.0,56,0.00,,SCT220,0.26,VWS V14.01,2013-04-16 21:19:00,
2013-04-16 17:24:00,50.5,36.3,30.14,WSW,245,3.0,7.0,58,0.00,,SCT220,0.26,VWS V14.01,2013-04-16 21:24:00,
2013-04-16 17:29:00,50.6,36.8,30.13,NW,315,0.0,3.0,59,0.00,,SCT220,0.26,VWS V14.01,2013-04-16 21:29:00,
2013-04-16 17:35:00,50.9,35.8,30.14,NW,305,0.0,9.0,56,0.00,,SCT220,0.26,VWS V14.01,2013-04-16 21:35:00,
2013-04-16 17:40:00,51.2,36.1,30.14,West,259,8.0,8.0,56,0.00,,SCT220,0.26,VWS V14.01,2013-04-16 21:40:00,
2013-04-16 17:45:00,51.0,35.4,30.14,WSW,257,7.0,8.0,55,0.00,,SCT220,0.26,VWS V14.01,2013-04-16 21:45:00,
2013-04-16 17:50:00,50.8,34.8,30.14,NW,310,0.0,6.0,54,0.00,,SCT220,0.26,VWS V14.01,2013-04-16 21:50:00,
2013-04-16 17:55:00,50.8,35.2,30.14,NW,304,3.0,5.0,55,0.00,,SCT220,0.26,VWS V14.01,2013-04-16 21:55:00,
2013-04-16 18:00:00,51.2,36.1,30.14,NW,324,1.0,10.0,56,0.00,,SCT220,0.26,VWS V14.01,2013-04-16 22:00:00,
2013-04-16 18:05:00,51.5,37.2,30.15,NNW,341,2.0,12.0,58,0.00,,BKN220,0.26,VWS V14.01,2013-04-16 22:05:00,
2013-04-16 18:10:00,51.5,35.9,30.16,NW,321,0.0,0.0,55,0.00,,BKN220,0.26,VWS V14.01,2013-04-16 22:10:00,
2013-04-16 18:15:00,51.6,35.5,30.16,West,273,0.0,0.0,54,0.00,,BKN220,0.26,VWS V14.01,2013-04-16 22:15:00,
2013-04-16 18:20:00,51.6,36.0,30.16,WNW,284,3.0,4.0,55,0.00,,BKN220,0.26,VWS V14.01,2013-04-16 22:20:00,
2013-04-16 18:26:00,51.8,36.2,30.16,WNW,283,0.0,2.0,55,0.00,,BKN220,0.26,VWS V14.01,2013-04-16 22:26:00,
2013-04-16 18:31:00,51.9,36.3,30.16,WNW,291,2.0,7.0,55,0.00,,BKN220,0.26,VWS V14.01,2013-04-16 22:31:00,
2013-04-16 18:36:00,52.0,36.3,30.17,WSW,253,0.0,0.0,55,0.00,,BKN220,0.26,VWS V14.01,2013-04-16 22:36:00,
2013-04-16 18:41:00,52.1,36.4,30.17,NW,307,0.0,4.0,55,0.00,,BKN220,0.26,VWS V14.01,2013-04-16 22:41:00,
2013-04-16 18:46:00,52.2,36.1,30.16,West,262,3.0,4.0,54,0.00,,BKN220,0.26,VWS V14.01,2013-04-16 22:46:00,
2013-04-16 18:51:00,52.6,36.5,30.16,NNE,20,0.0,9.0,54,0.00,,BKN220,0.26,VWS V14.01,2013-04-16 22:51:00,
2013-04-16 18:56:00,52.7,36.5,30.16,NW,313,0.0,0.0,54,0.00,,BKN220,0.26,VWS V14.01,2013-04-16 22:56:00,
2013-04-16 19:01:00,52.8,36.2,30.17,WNW,303,0.0,0.0,53,0.00,,BKN220,0.26,VWS V14.01,2013-04-16 23:01:00,
2013-04-16 19:06:00,52.9,36.7,30.17,NW,312,0.0,3.0,54,0.00,,BKN220,0.26,VWS V14.01,2013-04-16 23:06:00,
2013-04-16 19:11:00,52.9,35.8,30.17,North,351,0.0,8.0,52,0.00,,BKN220,0.26,VWS V14.01,2013-04-16 23:11:00,
2013-04-16 19:16:00,52.6,35.5,30.17,North,355,0.0,8.0,52,0.00,,BKN220,0.26,VWS V14.01,2013-04-16 23:16:00,
2013-04-16 19:21:00,52.3,35.2,30.16,North,8,2.0,7.0,52,0.00,,BKN220,0.26,VWS V14.01,2013-04-16 23:21:00,
2013-04-16 19:26:00,52.0,35.4,30.17,North,357,0.0,0.0,53,0.00,,BKN220,0.26,VWS V14.01,2013-04-16 23:26:00,
2013-04-16 19:31:00,51.9,35.3,30.17,NW,326,1.0,8.0,53,0.00,,BKN220,0.26,VWS V14.01,2013-04-16 23:31:00,
2013-04-16 19:37:00,51.8,34.8,30.17,North,1,1.0,3.0,52,0.00,,BKN220,0.26,VWS V14.01,2013-04-16 23:37:00,
2013-04-16 19:42:00,51.7,34.7,30.17,NW,323,6.0,11.0,52,0.00,,BKN220,0.26,VWS V14.01,2013-04-16 23:42:00,
2013-04-16 19:47:00,51.4,34.4,30.17,NNW,346,0.0,9.0,52,0.00,,BKN220,0.26,VWS V14.01,2013-04-16 23:47:00,
2013-04-16 19:52:00,51.1,34.1,30.17,NNW,327,3.0,9.0,52,0.00,,BKN220,0.26,VWS V14.01,2013-04-16 23:52:00,
2013-04-16 19:57:00,50.9,34.4,30.17,WNW,299,0.0,3.0,53,0.00,,BKN220,0.26,VWS V14.01,2013-04-16 23:57:00,
2013-04-16 20:02:00,50.7,34.7,30.17,NNW,330,0.0,0.0,54,0.00,,BKN220,0.26,VWS V14.01,2013-04-17 00:02:00,
2013-04-16 20:07:00,50.6,34.6,30.17,NW,316,0.0,0.0,54,0.00,,BKN220,0.26,VWS V14.01,2013-04-17 00:07:00,
2013-04-16 20:12:00,50.3,34.8,30.17,NW,309,0.0,0.0,55,0.00,,BKN220,0.26,VWS V14.01,2013-04-17 00:12:00,
2013-04-16 20:17:00,50.1,34.6,30.17,NW,322,0.0,0.0,55,0.00,,BKN220,0.26,VWS V14.01,2013-04-17 00:17:00,
2013-04-16 20:22:00,49.8,34.8,30.18,North,355,0.0,4.0,56,0.00,,BKN220,0.26,VWS V14.01,2013-04-17 00:22:00,
2013-04-16 20:27:00,49.5,34.5,30.18,NW,320,0.0,5.0,56,0.00,,BKN220,0.26,VWS V14.01,2013-04-17 00:27:00,
2013-04-16 20:32:00,49.2,34.2,30.18,NW,326,0.0,0.0,56,0.00,,BKN220,0.26,VWS V14.01,2013-04-17 00:32:00,
2013-04-16 20:38:00,49.0,34.5,30.18,NNW,334,0.0,0.0,57,0.00,,BKN220,0.26,VWS V14.01,2013-04-17 00:38:00,
2013-04-16 20:43:00,48.8,34.7,30.19,NNW,332,0.0,0.0,58,0.00,,BKN220,0.26,VWS V14.01,2013-04-17 00:43:00,
2013-04-16 20:48:00,48.6,34.5,30.19,NNW,336,0.0,0.0,58,0.00,,BKN220,0.26,VWS V14.01,2013-04-17 00:48:00,
2013-04-16 20:53:00,48.4,34.3,30.19,North,357,0.0,0.0,58,0.00,,BKN220,0.26,VWS V14.01,2013-04-17 00:53:00,
2013-04-16 20:58:00,48.3,34.7,30.19,NW,313,7.0,7.0,59,0.00,,BKN220,0.26,VWS V14.01,2013-04-17 00:58:00,
2013-04-16 21:03:00,48.1,34.9,30.19,NNW,335,0.0,0.0,60,0.00,,BKN220,0.26,VWS V14.01,2013-04-17 01:03:00,
2013-04-16 21:08:00,48.0,34.8,30.20,NW,318,0.0,3.0,60,0.00,,BKN130,0.26,VWS V14.01,2013-04-17 01:08:00,
2013-04-16 21:13:00,47.9,34.7,30.20,NNW,341,0.0,0.0,60,0.00,,BKN130,0.26,VWS V14.01,2013-04-17 01:13:00,
2013-04-16 21:18:00,47.7,34.5,30.20,NW,322,0.0,2.0,60,0.00,,BKN130,0.26,VWS V14.01,2013-04-17 01:18:00,
2013-04-16 21:23:00,47.6,34.8,30.20,NNW,346,0.0,4.0,61,0.00,,BKN130,0.26,VWS V14.01,2013-04-17 01:23:00,
2013-04-16 21:29:00,47.5,34.7,30.20,NNW,328,0.0,0.0,61,0.00,,BKN130,0.26,VWS V14.01,2013-04-17 01:29:00,
2013-04-16 21:34:00,47.4,35.0,30.20,NW,321,6.0,6.0,62,0.00,,BKN130,0.26,VWS V14.01,2013-04-17 01:34:00,
2013-04-16 21:39:00,47.2,34.9,30.21,NW,321,7.0,7.0,62,0.00,,BKN130,0.26,VWS V14.01,2013-04-17 01:39:00,
2013-04-16 21:44:00,47.2,34.9,30.22,NW,307,5.0,6.0,62,0.00,,BKN130,0.26,VWS V14.01,2013-04-17 01:44:00,
2013-04-16 21:49:00,47.1,34.8,30.22,NNW,336,0.0,0.0,62,0.00,,BKN130,0.26,VWS V14.01,2013-04-17 01:49:00,
2013-04-16 21:54:00,47.0,35.1,30.21,NNW,337,6.0,7.0,63,0.00,,BKN130,0.26,VWS V14.01,2013-04-17 01:54:00,
2013-04-16 21:59:00,47.0,35.1,30.21,NW,326,4.0,7.0,63,0.00,,BKN130,0.26,VWS V14.01,2013-04-17 01:59:00,
2013-04-16 22:04:00,46.9,35.0,30.21,NNW,341,3.0,4.0,63,0.00,,BKN140,0.26,VWS V14.01,2013-04-17 02:04:00,
2013-04-16 22:09:00,46.8,35.3,30.22,NNW,341,1.0,5.0,64,0.00,,BKN140,0.26,VWS V14.01,2013-04-17 02:09:00,
2013-04-16 22:15:00,46.7,34.8,30.22,NNW,336,0.0,7.0,63,0.00,,BKN140,0.26,VWS V14.01,2013-04-17 02:15:00,
2013-04-16 22:20:00,46.6,35.1,30.22,NNW,341,4.0,6.0,64,0.00,,BKN140,0.26,VWS V14.01,2013-04-17 02:20:00,
2013-04-16 22:25:00,46.6,35.5,30.23,NNW,328,0.0,4.0,65,0.00,,BKN140,0.26,VWS V14.01,2013-04-17 02:25:00,
2013-04-16 22:30:00,46.5,35.0,30.23,NNW,336,0.0,5.0,64,0.00,,BKN140,0.26,VWS V14.01,2013-04-17 02:30:00,
2013-04-16 22:35:00,46.4,35.3,30.23,NNW,332,4.0,7.0,65,0.00,,BKN140,0.26,VWS V14.01,2013-04-17 02:35:00,
2013-04-16 22:40:00,46.4,35.3,30.23,North,351,6.0,7.0,65,0.00,,BKN140,0.26,VWS V14.01,2013-04-17 02:40:00,
2013-04-16 22:45:00,46.2,35.1,30.22,NNW,341,0.0,4.0,65,0.00,,BKN140,0.26,VWS V14.01,2013-04-17 02:45:00,
2013-04-16 22:50:00,46.1,35.0,30.22,NNW,330,4.0,7.0,65,0.00,,BKN140,0.26,VWS V14.01,2013-04-17 02:50:00,
2013-04-16 22:55:00,46.0,34.9,30.22,North,355,4.0,9.0,65,0.00,,BKN140,0.26,VWS V14.01,2013-04-17 02:55:00,
2013-04-16 23:00:00,45.9,34.8,30.22,North,351,4.0,7.0,65,0.00,,BKN140,0.26,VWS V14.01,2013-04-17 03:00:00,
2013-04-16 23:05:00,45.7,34.6,30.22,NNE,12,0.0,7.0,65,0.00,,BKN140,0.26,VWS V14.01,2013-04-17 03:05:00,
2013-04-16 23:11:00,45.7,35.0,30.22,North,351,0.0,0.0,66,0.00,,BKN140,0.26,VWS V14.01,2013-04-17 03:11:00,
2013-04-16 23:16:00,45.6,34.9,30.23,NNW,327,0.0,0.0,66,0.00,,BKN140,0.26,VWS V14.01,2013-04-17 03:16:00,
2013-04-16 23:21:00,45.5,34.4,30.23,North,351,3.0,6.0,65,0.00,,BKN140,0.26,VWS V14.01,2013-04-17 03:21:00,
2013-04-16 23:26:00,45.4,34.7,30.23,NNE,12,0.0,0.0,66,0.00,,BKN140,0.26,VWS V14.01,2013-04-17 03:26:00,
2013-04-16 23:32:00,45.2,34.5,30.22,North,360,3.0,6.0,66,0.00,,BKN140,0.26,VWS V14.01,2013-04-17 03:32:00,
2013-04-16 23:37:00,45.1,34.4,30.23,NNE,12,0.0,0.0,66,0.00,,BKN140,0.26,VWS V14.01,2013-04-17 03:37:00,
2013-04-16 23:42:00,45.0,34.3,30.22,NNW,346,0.0,3.0,66,0.00,,BKN140,0.26,VWS V14.01,2013-04-17 03:42:00,
2013-04-16 23:47:00,44.9,34.2,30.21,North,357,3.0,8.0,66,0.00,,BKN140,0.26,VWS V14.01,2013-04-17 03:47:00,
2013-04-16 23:52:00,44.8,34.2,30.21,North,1,5.0,8.0,66,0.00,,BKN140,0.26,VWS V14.01,2013-04-17 03:52:00,
2013-04-16 23:57:00,44.7,34.0,30.22,North,9,5.0,8.0,66,0.00,,BKN140,0.26,VWS V14.01,2013-04-17 03:57:00,